カタログに戻る

TITAN 34D TRANSTAGE R/B

運用中GEO
NORAD 15454·ROCKET BODY·🇺🇸 United States

打ち上げ Dec 22, 1984 から Cape Canaveral Space Force Station

Loading…

TLE

最新Source: Space-Track

元期: Sep 14, 2026, 01:23 UTC

1 15454U 84129B   26257.05797491 -.00000257  00000-0  00000-0 0  9992
2 15454  10.1475 315.1730 0006738 254.2025 105.6928  1.01156156 26648

AllMySatでTITAN 34D TRANSTAGE R/Bをリアルタイム追跡

Download on the App Store